OPS 4682 DEB, 55119

Orbit data source: Space-Track

OPS 4682 DEB, 55119 is space debris in LEO originally from a launch on Sat, 03 Apr 1965 UTC launched from the Air Force Western Test Range (AFWTR). Debris objects in space refer to the collection of defunct objects orbiting the Earth. Examples of debris include non-operational satellites, rocket bodies, and fragments generated from explosions, collisions, or faulty payload assembly.

Loading next visibility...
Identifier
55119, 1965-027HJ
Orbit
LEO
Country
Flag of USUS
Related business
Manufacturer
Unknown
Mission
Spacecraft
Bus & Motor
Unknown
Mass
Unknown
Launch date (UTC)
1965-04-03 (61 years ago)
Launch vehicle
Unknown
Launch site
Air Force Western Test Range (AFWTR)
Object type
Payload
Rocket body
Debris
Shape & HBR
Unknown
Radar Cross Section
Medium (>0.1 m² and <1 m²)

Expand to show TLE details & history
Last TLE update: 3 days ago

TLE from 3 days ago
0 OPS 4682 DEB
1 55119U 65027HJ  26205.21740346  .00000426  00000-0  14592-2 0  9998
2 55119  90.2362   7.1978 0022375   7.5569 352.5884 12.96673065334727
Epoch: 2026-07-24T05:13Z
TLE epoch observation values (Epoch: 2026-07-24T05:13:03.658Z)
Latitude
-0.00006°
Longitude
-13.01465°
Altitude
1,261.045 km
Speed
7.233 km/s
True Right ascension
00h 28m 47s
True Declination
0° 00' 00"
Sunlit
Object was in daylight at epoch
Visualization orbit readout
Latitude
Unknown
Longitude
Unknown
Altitude
Unknown
Speed
Unknown
Apparent Right ascension
Unknown
Apparent Declination
Unknown
Sunlit
N/A
Visualization observer readout
Local Sidereal Time
19:38:39
Azimuth
Unknown
Elevation
Unknown
Doppler factor
Unknown
Orbital elements
Apogee altitude
1,289.399 km
Perigee altitude
1,255.164 km
Semi-major axis
7,650.419 km
Eccentricity
0.00224
Inclination
90.2362°
RAAN
7.1978°
Arg. of periapsis
7.5569°
True anomaly
352.55523°
Mean anomaly
352.5884°
Eccentric anomaly
352.57183°
Mean motion
3.24351 °/min
Orbital period
110.99 mins
BSTAR
0.0014592
Loading maneuver chart data...
Computing Atmospheric mass density...
Loading historical data...
Loading historical data...
Loading historical data...
Loading historical data...
Loading historical data...
Loading historical data...
Loading historical data...

Documentation

Showing up to 5 results
|